Regional Weather Roundup
Issued by NWS Bismarck, ND

Home | Current Version | Previous Version | Text Only | Print | Product List | Glossary On
Versions: 1 2 3 4 5 6 7 8 9 10 11 12 13 14 15 16 17 18 19 20 21 22 23 24 25 26 27 28 29 30 31 32 33 34 35 36 37 38 39 40 41 42 43 44 45 46 47 48 49 50
000
ASUS43 KBIS 020102
RWRBIS

NWR BROADCAST TEXT
NATIONAL WEATHER SERVICE BISMARCK ND
800 PM CDT WED JUL 01 2015

NOTE: "FAIR" INDICATES FEW OR NO CLOUDS BELOW 12,000 FEET WITH NO
SIGNIFICANT WEATHER AND/OR OBSTRUCTIONS TO VISIBILITY.


CITY           SKY/WX    TMP DP  RH WIND       PRES   REMARKS
WILLISTON      CLOUDY    75  58  55 NW3       29.96R HAZE
MINOT          MOSUNNY   72  63  73 N6        29.93S
MINOT AFB      MOSUNNY   73  70  92 NE5       29.93S
BISMARCK       CLOUDY    74  67  78 E6        29.94R
DICKINSON      PTSUNNY   72  61  68 CALM      29.96F
GARRISON         N/A     74  64  71 NE3       29.94S
HETTINGER ARPT PTSUNNY   73  62  68 N5        29.98F
JAMESTOWN      SUNNY     73  63  70 SE8       29.94R
HAZEN          FAIR      73  63  68 NE3       29.95S
OAKES            N/A     72  66  83 E10       29.95R
STANLEY        FAIR      70  70 100 CALM      29.97S FOG
$$

CITY           SKY/WX    TMP DP  RH WIND       PRES   REMARKS
GRAND FORKS    MOSUNNY   75  63  66 S5        29.92S HAZE
GRAND FORKS AF SUNNY     73  63  70 S8        29.93S
DEVILS LAKE    MOSUNNY   73  59  60 SE6       29.93R
FARGO          SUNNY     72  56  57 S10       29.94F
CAVALIER       FAIR      77  59  53 SE5       29.92S
GRAFTON        FAIR      75  61  60 S6        29.93S
GWINNER        FAIR     N/A N/A N/A SE8       29.95S
LANGDON        FAIR      72  64  78 S5        29.96R
$$

CITY           SKY/WX    TMP DP  RH WIND       PRES   REMARKS
ABERDEEN       MOSUNNY   75  64  68 E8        29.93R
MOBRIDGE       MOSUNNY   79  65  62 NE6       29.91R
BUFFALO          N/A     75  63  66 NE10      29.92F
RAPID CITY     SUNNY     78  65  63 NE12      29.99R
GLASGOW        PTSUNNY   72  50  45 N21G30    30.00R
SIDNEY         CLOUDY    75  59  57 N7        29.95F
WOLF POINT     CLOUDY    67  59  75 E6        29.98F
GLENDIVE       CLOUDY    75  61  60 SW6       29.97F
MILES CITY     LGT RAIN  80  60  50 N7        29.96R
BAKER          PTSUNNY   77  60  55 E10       29.97F
$$

CITY           SKY/WX    TMP DP  RH WIND       PRES   REMARKS
BILLINGS       MOSUNNY   84  51  31 NE20      30.01R
GREAT FALLS    SUNNY     79  52  38 NE13      30.09R
$$




USA.gov is the U.S. government's official web portal to all federal, state and local government web resources and services.